Weather History for KPRN - January, 2013

Change the Weather History Date:

Sunday, January 6, 2013

  Actual Average Record
Temperature  
Mean Temperature 46 °F -  
Max Temperature 52 °F 58 °F 78 °F (1936)
Min Temperature 41 °F 36 °F 13 °F (1969)
Degree Days  
Heating Degree Days 18    
Moisture  
Dew Point 39 °F    
Average Humidity 77    
Maximum Humidity 93    
Minimum Humidity 59    
Precipitation  
Precipitation 0.06 in - - ()
Sea Level Pressure  
Sea Level Pressure 30.24 in    
Wind  
Wind Speed 5 mph (North)    
Max Wind Speed 9 mph    
Max Gust Speed -    
Visibility 10 miles    
Events Rain    
Averages and records for this station are not official NWS values.
T = Trace of Precipitation, MM = Missing Value Source: NWS Daily Summary

Daily Weather History Graph

Daily Weather History Graph

Search for Another Location

Airport or City:

Trip Planner

Search our weather history database for the weather conditions in past years. The results will help you decide how hot, cold, wet, or windy it might be!

Date:

Astronomy

Jan. 06, 2013 Rise Set
Actual Time 6:47 AM CST 4:57 PM CST
Civil Twilight 6:20 AM CST 5:24 PM CST
Nautical Twilight 5:50 AM CST 5:54 PM CST
Astronomical Twilight 5:20 AM CST 6:24 PM CST
Moon 1:09 AM CST (1/6) 12:18 PM CST (1/6)
Length of Visible Light 11h 03m
Length of Day
10h 10m
Waning Crescent, 33% of the Moon is Illuminated
Jan 6
Waning Crescent
Jan 11
New
Jan 18
First Quarter
Jan 26
Full
Feb 3
Last Quarter

Hourly Weather History & Observations

Time (CST) Temp. Windchill Dew Point Humidity Pressure Visibility Wind Dir Wind Speed Gust Speed Precip Events Conditions
12:56 AM 46.9 °F - 33.1 °F 59% 30.25 in 10.0 mi North 8.1 mph - N/A   Overcast
2:56 AM 45.0 °F 41.2 °F 36.0 °F 71% 30.22 in 10.0 mi ENE 6.9 mph - 0.00 in   Overcast
3:56 AM 43.0 °F - 41.0 °F 93% 30.25 in 4.0 mi Calm Calm - 0.04 in Rain Light Rain
4:45 AM 42.8 °F - 41.0 °F 93% 30.23 in 9.0 mi Calm Calm - 0.02 in   Overcast
4:56 AM 43.0 °F - 41.0 °F 93% 30.24 in 10.0 mi Calm Calm - 0.02 in   Overcast
5:16 AM 42.8 °F - 41.0 °F 93% 30.24 in 10.0 mi Calm Calm - N/A   Overcast
5:27 AM 42.8 °F 41.1 °F 41.0 °F 93% 30.23 in 10.0 mi North 3.5 mph - N/A   Overcast
5:56 AM 43.0 °F 39.5 °F 41.0 °F 93% 30.24 in 9.0 mi North 5.8 mph - N/A   Overcast
6:17 AM 42.8 °F 40.1 °F 41.0 °F 93% 30.23 in 10.0 mi North 4.6 mph - N/A   Overcast
6:56 AM 43.0 °F 40.3 °F 41.0 °F 93% 30.25 in 10.0 mi North 4.6 mph - N/A   Overcast
7:56 AM 44.1 °F - 42.1 °F 93% 30.25 in 10.0 mi Calm Calm - N/A   Overcast
9:56 AM 48.0 °F - 39.9 °F 74% 30.27 in 10.0 mi Calm Calm - N/A   Overcast
10:35 AM 48.2 °F - 39.2 °F 71% 30.26 in 10.0 mi North 6.9 mph - 0.00 in Rain Light Rain
10:53 AM 48.2 °F - 37.4 °F 66% 30.25 in 10.0 mi North 5.8 mph - 0.00 in   Overcast
10:56 AM 48.9 °F - 37.9 °F 66% 30.25 in 10.0 mi North 6.9 mph - 0.00 in Rain Light Rain
11:44 AM 48.2 °F - 37.4 °F 66% 30.23 in 10.0 mi North 9.2 mph - 0.00 in Rain Light Rain
11:56 AM 48.9 °F - 37.9 °F 66% 30.22 in 10.0 mi North 6.9 mph - 0.00 in   Overcast
12:36 PM 50.0 °F - 37.4 °F 62% 30.20 in 10.0 mi North 5.8 mph - N/A   Overcast
12:56 PM 51.1 °F - 37.9 °F 61% 30.20 in 10.0 mi North 5.8 mph - N/A   Overcast
1:16 PM 50.0 °F - 39.2 °F 66% 30.20 in 10.0 mi NNW 4.6 mph - 0.00 in Rain Light Rain
1:42 PM 51.8 °F - 39.2 °F 62% 30.20 in 10.0 mi Variable 3.5 mph - 0.00 in   Overcast
1:56 PM 51.1 °F - 39.0 °F 63% 30.20 in 10.0 mi NW 5.8 mph - 0.00 in   Overcast
2:56 PM 52.0 °F - 39.9 °F 63% 30.19 in 10.0 mi North 9.2 mph - N/A   Overcast
3:56 PM 52.0 °F - 39.9 °F 63% 30.20 in 10.0 mi NNW 4.6 mph - N/A   Overcast
4:56 PM 50.0 °F - 39.0 °F 66% 30.21 in 10.0 mi NNW 3.5 mph - N/A   Clear
5:56 PM 45.0 °F - 39.9 °F 82% 30.22 in 10.0 mi Calm Calm - N/A   Clear
6:56 PM 45.0 °F 42.6 °F 39.9 °F 82% 30.25 in 10.0 mi NNW 4.6 mph - N/A   Clear
7:56 PM 44.1 °F 40.8 °F 39.0 °F 82% 30.27 in 10.0 mi NNW 5.8 mph - N/A   Clear
8:56 PM 43.0 °F 41.3 °F 37.9 °F 82% 30.27 in 10.0 mi NNW 3.5 mph - N/A   Clear
9:56 PM 41.0 °F 38.0 °F 37.0 °F 86% 30.27 in 10.0 mi North 4.6 mph - N/A   Clear
10:56 PM 42.1 °F 37.7 °F 37.0 °F 82% 30.27 in 10.0 mi North 6.9 mph - N/A   Clear
11:56 PM 42.1 °F 39.2 °F 37.0 °F 82% 30.29 in 10.0 mi North 4.6 mph - N/A   Clear